Current Version              Previous Version:    01  02  03  04  05  06  07  08  09  10  11  12  13  14  15  16  17  18  19  20  21  22  23  24  25  26  27  28  29  30  
   31  32  33  34  35  36  37  38  39  40  41  42  43  44  45  46  47  48  49  50  51  52  53  54  55  56  57  58  59  60  

[Printable]
664
ASUS44 KLUB 231310
RWRTX
WEST TEXAS WEATHER ROUNDUP
NATIONAL WEATHER SERVICE LUBBOCK TX
800 AM CDT TUE SEP 23 2014

NOTE: "FAIR" INDICATES FEW OR NO CLOUDS BELOW 12,000 FEET WITH NO
SIGNIFICANT WEATHER AND/OR OBSTRUCTIONS TO VISIBILITY.

TXZ004-006>008-010-012-014-016-OKZ002-231400-
TEXAS PANHANDLE/OKLAHOMA PANHANDLE

CITY           SKY/WX    TMP DP  RH WIND       PRES   REMARKS
AMARILLO       PTCLDY    62  55  77 S15       30.19S
BORGER         CLEAR     62  54  74 S10       30.16S
CANADIAN       PTCLDY    64  51  64 S9G17     30.16S
DALHART        PTCLDY    64  61  90 SW15      30.18S
DUMAS          CLEAR     59  57  92 S7        30.17R
GUYMON         PTCLDY    64  59  83 S12       30.11S
HEREFORD       CLEAR     61  60  95 S8        30.20S
PAMPA          PTCLDY    62  49  63 S14       30.18S
PERRYTON       PTCLDY    63  48  59 S15       30.15S
$$

TXZ026-029-035-045-048-231400-
SOUTHERN PANHANDLE/SOUTH PLAINS/ROLLING PLAINS

CITY           SKY/WX    TMP DP  RH WIND       PRES   REMARKS
CHILDRESS      PTCLDY    62  53  72 SE9       30.18R
SEMINOLE       MOCLDY    64  63  97 CALM      30.21S FOG
LUBBOCK        MOCLDY    61  58  90 SE6       30.20S
PLAINVIEW      PTCLDY    60  57  91 S7        30.18F
SNYDER         MOCLDY    66  59  79 SE9       30.19S
$$

TXZ052-054-060>062-072-078-127-140-154-169-231400-
PERMIAN BASIN/CONCHO VALLEY/BIG COUNTRY/EDWARDS PLATEAU

CITY           SKY/WX    TMP DP  RH WIND       PRES   REMARKS
ABILENE        PTCLDY    65  53  65 SE8       30.18S
BIG SPRING     CLOUDY    72  66  83 E8        30.21R
BRADY          CLEAR     64  55  72 E6        30.17R
BROWNWOOD      MOCLDY    64  55  72 CALM      30.19R
JUNCTION       PTCLDY    66  64  93 S3        30.16R FOG
MIDLAND        PTCLDY    65  62  90 SE6       30.18R FOG
ODESSA         PTCLDY    66  61  84 SE7       30.19R
SAN ANGELO     MOCLDY    67  64  90 E6        30.17R
SONORA         MOCLDY    70  64  83 E3        30.21R
SWEETWATER     MOCLDY    67  56  67 SE13      30.21S
WINK           CLOUDY    67  60  78 E7        30.14R
$$

TXZ055-058-074-075-080-082-231400-
FAR WEST/SOUTHWEST MOUNTAINS/TRANS PECOS

CITY           SKY/WX    TMP DP  RH WIND       PRES   REMARKS
ALPINE         MOCLDY    61  53  75 CALM      30.29R
DRYDEN           N/A     72  62  71 N3        30.13R
EL PASO        PTCLDY    66  63  90 NE3       30.17R
FORT STOCKTON  MOCLDY    65  57  75 SE5       30.17R
GUADALUPE PASS CLOUDY    63  49  60 CALM        N/A
MARFA          MOCLDY    57  55  94 NE5       30.27S
PECOS          CLOUDY    64  59  86 E6        30.13S
PRESIDIO       FAIR      70  55  58 NE5       30.14R
$$

TXZ014-016-019-021>030-083-231400
TEXAS TECH WEST TEXAS MESONET/TEXAS PANHANDLE/NORTHERN SOUTH PLAINS

CITY           SKY/WX    TMP DP  RH WIND       PRES   REMARKS
ABERNATHY 5ENE   N/A     59  57  92 S7        30.22S
AMARILLO 9NNE    N/A     63  55  75 S10       30.17R
AMARILLO 7SSE    N/A     61  55  82 S9        30.20S
AMHERST 1NE      N/A     59  59  97 S6        30.20F
BOOTLEG 11WNW    N/A     60  59  96 S14       30.23S
CANADIAN 6E      N/A     60  51  70 SE10      30.15F
CAPROCK CYN SP   N/A     63  57  82 S9        30.18S
CHILDRESS 2NNE   N/A     60  53  77 SE9       30.17S
CLARENDON 2WSW   N/A     60  50  69 SE7       30.19S
CLAUDE 12SW      N/A     63  56  79 S6        30.20S
DIMMITT 2NE      N/A     60  57  91 S10       30.20S
FLOYDADA 2NNE    N/A     59  56  87 S8        30.20S
FRIONA 2NE       N/A     60  58  93 S12       30.21S
GOODLETT 3W      N/A     64  52  65 SE6       30.17S
HART 3N          N/A     60  57  91 S7        30.20S
HEREFORD 2NW     N/A     60  57  89 S8        30.19S
MCLEAN 1E        N/A     60  49  66 S10       30.18S
MEMPHIS 1NE      N/A     60  51  73 NE3       30.19R
MULESHOE 2SSW    N/A     61  59  94 S7        30.20S
OLTON 6S         N/A     60  57  91 S10       30.20S
PALO DURO SP     N/A     61  55  79 S8        30.21S
PAMPA 2E         N/A     61  50  68 SE10      30.18S
PLAINVIEW 1S     N/A     59  57  91 S7        30.19F
SILVERTON 7ESE   N/A     63  58  82 S10       30.19S
TULIA 2ENE       N/A     59  56  91 S8        30.20S
TURKEY 2WSW      N/A     61  57  87 SE5       30.17S
UMBARGER 3NNE    N/A     60  56  87 S13       30.19F
$$

TXZ033>036-039>041-045>048-231400
TEXAS TECH WEST TEXAS MESONET/SOUTH PLAINS

CITY           SKY/WX    TMP DP  RH WIND       PRES   REMARKS
AIKEN 3WSW       N/A     60  57  92 S6        30.21S
ANTON 6SSW       N/A     61  60  94 SE7       30.20F
BROWNFIELD 2S    N/A     62  60  95 SE3       30.21R
DENVR CTY 7WNW   N/A     60  58  94 E3        30.21S
GAIL 2ESE        N/A     66  63  91 SE3       30.18S
LAMESA 2SE       N/A     65  63  94 NE3       30.21R
LEVELLAND 4S     N/A     62  59  92 SE3       30.21S
LUBBOCK 3WNW     N/A     63  59  85 SE5       30.21S
MORTON 1ENE      N/A     59  59  98 SE5       30.21S
ODONNELL 1N      N/A     63  61  93 SE6       30.20S
PLAINS 3N        N/A     61  60  96 E5        30.22R
RALLS 1SE        N/A     60  57  90 SE6       30.21S
REESE CENTER     N/A     62  60  91 SE6       30.21S
SEMINOLE 2NNE    N/A     64  62  94 SE6       30.20S
SLATON 2NE       N/A     60  57  89 SE5       30.21S
SNYDER 3E        N/A     65  58  79 SE8       30.18R
SUNDOWN 8SW      N/A     62  61  96 SE6       30.21S
TAHOKA 3NNE      N/A     63  61  94 SE7       30.19F
WOLFFORTH 6SSW   N/A     61  61  97 SE3       30.21S
$$

TXZ031-032-036>038-042>044-231400-
TEXAS TECH WEST TEXAS MESONET/ROLLING PLAINS

CITY           SKY/WX    TMP DP  RH WIND       PRES   REMARKS
ASPERMONT 3NE    N/A     63  55  74 E3        30.18S
FLUVANNA 3WNW    N/A     65  60  82 SE7       30.19S
GRAHAM 5SSW      N/A     65  62  90 SE7       30.19S
GUTHRIE 10WSW    N/A     61  56  84 SE5       30.17F
HASKELL 1NW      N/A     65  51  59 SE6       30.17S
JAYTON 1SSE      N/A     63  56  79 SE6       30.18S
KNOX CITY 3NW    N/A     65  53  63 S1        30.18R
LK A HENRY 1NW   N/A     63  61  92 CALM      30.18S
NORTHFIELD 1S    N/A     61  55  81 SE5       30.17R
ODELL 4ENE       N/A     61  55  81 SE7       30.19R
PADUCAH 10SW     N/A     60  56  85 S7        30.17S
POST 1NE         N/A     62  61  97 NW1       30.19S
RRING SPRGS 3N   N/A     60  56  86 S7        30.18S
SEYMOUR 3NW      N/A     65  51  59 SE7       30.18R
SPUR 1W          N/A     62  56  80 SE3       30.18S
WEINERT 2NNE     N/A     65  52  63 SE6       30.18S
WHITE RVR 6NE    N/A     62  56  82 SE3       30.19S
$$

TXZ052-054-060>062-072-078-127-140-154-169-231400-
TEXAS TECH WEST TEXAS MESONET/PERMIAN BASIN/
CONCHO VALLEY/BIG COUNTRY/EDWARDS PLATEAU

CITY           SKY/WX    TMP DP  RH WIND       PRES   REMARKS
COYANOSA 2N      N/A     65  60  84 E7        30.15R
JUNCTION 1SSW    N/A     64  62  94 CALM      30.17R
MERTZON 3NNE     N/A     67  65  91 E1        30.18F
SAN ANGELO 7NW   N/A     68  60  76 E8        30.17S
STRLNG CT 4WSW   N/A     67  65  91 E7        30.19S
ST LAWRNCE 5SW   N/A     65  64  97 SE6       30.18S
SWEETWATR 11SW   N/A     66  56  71 SE13      30.20S
WALL 1E          N/A     64  61  90 NE2       30.18S
$$

TXZ055-058-074-075-080-082-231400-
TEXAS TECH WEST TEXAS MESONET/FAR WEST/SOUTHWEST MOUNTAINS/TRANS PECOS

CITY           SKY/WX    TMP DP  RH WIND       PRES   REMARKS
PRSMN GAP BBNP   N/A     69  58  67 NE5       30.15S
GUADLPE MTN NP   N/A     58  51  76 W7        30.28S
$$